Temp
-10 -10 -10 -10 -9 -9 -9 -9 -9 -9 -9 -9 -9 -9 -9 -8 -9 -9 -8 -8 -8 -8 -8 -8 -7 -7 -7 -7 -7 -7 -7 -7 -7 -8 -8 -7 -8 -8 -8 -7 -7 -8 -8 -9 -10 -10 -10 -10 -11
-10 -10 -10 -10 -9 -9 -9 -9 -9 -9 -9 -9 -9 -9 -9 -9 -9 -9 -9 -9 -8 -8 -8 -7 -8 -8 -7 -7 -7 -7 -7 -7 -8 -8 -8 -8 -8 -7 -7 -7 -8 -8 -8 -9 -9 -10 -10 -10 -11
-10 -10 -10 -10 -9 -9 -9 -9 -9 -9 -9 -9 -9 -9 -9 -9 -9 -9 -9 -8 -8 -8 -7 -8 -8 -8 -7 -7 -8 -7 -7 -8 -7 -8 -8 -8 -7 -7 -7 -8 -8 -8 -8 -9 -9 -10 -10 -10 -11
-10 -10 -10 -10 -9 -9 -9 -9 -9 -9 -9 -9 -9 -9 -9 -9 -9 -9 -8 -8 -8 -8 -8 -8 -8 -8 -8 -8 -7 -7 -7 -7 -7 -8 -7 -7 -7 -7 -7 -8 -8 -8 -9 -9 -9 -9 -10 -10 -11
-10 -10 -10 -10 -10 -9 -9 -9 -9 -9 -9 -9 -9 -9 -9 -9 -9 -9 -8 -8 -8 -8 -8 -8 -8 -8 -8 -8 -8 -7 -7 -7 -8 -7 -7 -7 -7 -7 -7 -8 -8 -8 -8 -9 -9 -9 -10 -10 -10
-10 -10 -10 -10 -10 -9 -9 -9 -9 -9 -10 -9 -9 -9 -9 -9 -9 -8 -8 -8 -8 -8 -8 -8 -8 -8 -8 -8 -8 -8 -8 -8 -8 -7 -7 -7 -7 -7 -8 -8 -8 -8 -8 -9 -9 -9 -9 -10 -11
-11 -11 -10 -10 -10 -9 -9 -9 -9 -9 -9 -10 -10 -9 -9 -9 -9 -8 -8 -8 -8 -8 -8 -8 -8 -8 -8 -8 -8 -8 -8 -8 -8 -7 -7 -7 -7 -8 -8 -8 -8 -8 -9 -9 -9 -9 -9 -10 -11
-11 -10 -10 -10 -10 -9 -9 -9 -9 -9 -9 -9 -10 -10 -9 -9 -9 -8 -8 -8 -8 -8 -8 -8 -8 -8 -8 -8 -8 -8 -8 -8 -8 -8 -8 -8 -8 -8 -8 -8 -8 -8 -9 -9 -9 -9 -9 -10 -11
-11 -10 -10 -10 -10 -10 -9 -9 -9 -9 -9 -9 -9 -9 -9 -9 -9 -8 -8 -8 -8 -8 -8 -8 -8 -8 -8 -8 -8 -8 -8 -8 -8 -8 -8 -8 -8 -8 -8 -8 -8 -9 -9 -9 -9 -9 -10 -10 -11
-11 -10 -11 -10 -10 -10 -9 -9 -9 -9 -9 -9 -10 -9 -9 -9 -9 -8 -8 -8 -8 -8 -8 -8 -8 -8 -8 -8 -8 -8 -8 -8 -8 -8 -8 -8 -8 -8 -8 -8 -8 -9 -9 -9 -10 -9 -10 -10 -11
-11 -11 -11 -10 -10 -9 -9 -9 -10 -10 -9 -9 -9 -9 -9 -9 -8 -8 -8 -8 -8 -8 -8 -8 -8 -8 -8 -8 -8 -8 -8 -8 -8 -8 -8 -8 -8 -8 -8 -8 -9 -9 -9 -9 -10 -10 -10 -10 -11
-11 -11 -11 -11 -10 -9 -9 -9 -9 -9 -10 -9 -9 -9 -9 -9 -8 -8 -8 -8 -8 -8 -8 -8 -8 -8 -8 -8 -8 -9 -8 -8 -8 -8 -8 -8 -8 -8 -8 -8 -9 -9 -9 -10 -10 -10 -10 -11 -11
-11 -11 -11 -11 -10 -9 -9 -9 -9 -9 -9 -9 -9 -9 -9 -9 -8 -8 -8 -8 -8 -8 -8 -8 -8 -8 -8 -8 -8 -9 -8 -8 -8 -8 -8 -8 -9 -8 -8 -9 -9 -9 -9 -9 -10 -10 -10 -11 -11
-12 -11 -11 -11 -10 -9 -9 -9 -9 -9 -9 -9 -9 -9 -9 -9 -8 -8 -8 -8 -8 -8 -8 -8 -8 -8 -8 -8 -8 -9 -9 -9 -9 -9 -9 -8 -8 -8 -8 -9 -9 -9 -9 -9 -10 -10 -10 -11 -11
-12 -11 -11 -11 -11 -9 -9 -9 -8 -10 -10 -9 -9 -9 -9 -9 -8 -8 -8 -8 -8 -8 -8 -8 -8 -8 -8 -8 -8 -9 -9 -9 -9 -9 -8 -8 -8 -9 -9 -9 -9 -9 -9 -9 -10 -10 -10 -11 -11
-12 -11 -11 -11 -11 -10 -9 -8 -9 -10 -9 -9 -9 -9 -9 -9 -9 -9 -8 -8 -8 -8 -8 -8 -8 -8 -8 -8 -8 -9 -9 -9 -9 -9 -9 -8 -9 -9 -9 -9 -9 -9 -9 -9 -10 -10 -10 -11 -11
-12 -11 -11 -11 -12 -11 -10 -8 -10 -10 -9 -9 -9 -9 -9 -9 -9 -9 -9 -8 -8 -8 -8 -8 -8 -8 -8 -8 -9 -9 -9 -9 -9 -9 -9 -8 -9 -9 -9 -9 -9 -9 -10 -10 -10 -11 -10 -11 -11
-12 -12 -12 -13 -12 -12 -10 -9 -10 -10 -10 -9 -8 -9 -9 -9 -9 -9 -9 -8 -8 -8 -8 -8 -8 -8 -8 -8 -9 -9 -9 -9 -9 -9 -9 -9 -9 -9 -9 -9 -9 -9 -10 -10 -10 -11 -11 -11 -11
-14 -13 -13 -13 -12 -11 -10 -9 -10 -10 -9 -9 -9 -9 -9 -9 -9 -9 -9 -8 -8 -8 -8 -8 -8 -8 -9 -9 -9 -9 -9 -9 -9 -9 -9 -9 -9 -9 -9 -9 -9 -10 -10 -10 -10 -10 -11 -11 -11
-13 -13 -13 -13 -13 -12 -11 -10 -10 -10 -9 -9 -9 -9 -9 -10 -9 -9 -9 -9 -9 -9 -9 -9 -9 -9 -9 -9 -8 -9 -9 -9 -9 -9 -9 -9 -9 -9 -10 -10 -10 -10 -10 -10 -10 -10 -11 -11 -11
-14 -13 -13 -14 -13 -13 -12 -10 -10 -10 -9 -9 -9 -9 -9 -9 -10 -9 -9 -9 -9 -9 -9 -9 -9 -9 -9 -9 -9 -9 -9 -9 -9 -9 -9 -10 -10 -10 -10 -10 -10 -10 -10 -10 -10 -10 -11 -12 -12
-14 -14 -14 -15 -14 -13 -13 -10 -10 -10 -10 -9 -9 -9 -9 -9 -9 -9 -9 -9 -9 -9 -9 -9 -9 -9 -9 -9 -9 -9 -9 -9 -10 -10 -10 -10 -10 -10 -10 -10 -10 -10 -11 -11 -11 -11 -11 -12 -12
-14 -15 -16 -16 -16 -14 -13 -12 -9 -10 -9 -9 -9 -9 -9 -10 -9 -9 -9 -9 -9 -9 -9 -9 -9 -9 -9 -9 -9 -9 -9 -10 -10 -10 -10 -10 -10 -10 -10 -11 -10 -11 -11 -11 -11 -11 -11 -12 -12
-16 -17 -16 -16 -16 -15 -12 -12 -8 -10 -9 -10 -10 -10 -10 -9 -9 -9 -9 -9 -9 -9 -9 -8 -9 -9 -9 -9 -9 -9 -9 -10 -10 -10 -10 -10 -10 -11 -11 -11 -11 -11 -11 -11 -11 -12 -11 -12 -12
-16 -16 -16 -16 -15 -12 -12 -12 -9 -10 -11 -11 -11 -10 -10 -9 -9 -9 -9 -9 -9 -9 -9 -9 -9 -9 -9 -9 -9 -9 -9 -10 -10 -10 -10 -11 -11 -11 -11 -11 -11 -11 -12 -12 -12 -12 -12 -12 -12
-16 -16 -15 -15 -14 -13 -13 -11 -9 -10 -11 -11 -11 -12 -11 -10 -10 -10 -9 -9 -9 -9 -9 -9 -9 -9 -9 -10 -10 -9 -10 -10 -10 -10 -11 -11 -11 -11 -11 -11 -12 -12 -12 -12 -12 -12 -12 -12 -12
-17 -18 -16 -17 -16 -15 -13 -11 -11 -11 -12 -12 -13 -13 -12 -11 -11 -10 -10 -9 -9 -9 -9 -9 -9 -9 -9 -9 -9 -9 -10 -10 -10 -11 -11 -11 -11 -11 -12 -12 -12 -12 -12 -12 -13 -13 -13 -13 -13
-18 -17 -18 -18 -17 -15 -13 -12 -11 -12 -13 -13 -13 -12 -12 -11 -11 -11 -11 -10 -10 -10 -10 -9 -9 -9 -9 -10 -10 -10 -10 -10 -10 -11 -11 -11 -12 -12 -12 -12 -12 -12 -12 -13 -13 -13 -13 -13 -14
-18 -19 -18 -18 -17 -15 -14 -13 -13 -13 -13 -13 -12 -12 -12 -12 -11 -12 -11 -11 -10 -10 -10 -10 -10 -10 -10 -10 -10 -10 -10 -10 -11 -11 -12 -12 -12 -12 -12 -12 -13 -13 -13 -13 -13 -13 -14 -14 -14
-20 -20 -19 -18 -17 -16 -15 -14 -14 -13 -13 -14 -13 -13 -12 -12 -12 -12 -12 -12 -11 -11 -11 -10 -10 -10 -10 -10 -10 -10 -10 -11 -11 -12 -12 -12 -12 -12 -12 -13 -13 -13 -13 -13 -14 -13 -14 -14 -14
Height
5811 5813 5813 5816 5820 5821 5822 5825 5826 5827 5828 5829 5830 5832 5834 5836 5837 5839 5837 5838 5839 5840 5842 5842 5843 5844 5844 5844 5845 5844 5843 5842 5840 5838 5835 5834 5832 5829 5826 5824 5821 5818 5814 5811 5808 5804 5801 5797 5793
5806 5809 5810 5812 5816 5818 5820 5821 5822 5824 5826 5827 5829 5830 5832 5834 5835 5835 5836 5837 5838 5840 5841 5842 5843 5844 5844 5845 5845 5844 5843 5842 5840 5837 5835 5833 5830 5828 5825 5822 5819 5815 5812 5808 5805 5802 5798 5793 5788
5801 5804 5807 5809 5813 5815 5817 5818 5820 5822 5823 5825 5827 5829 5830 5833 5833 5834 5834 5836 5838 5839 5841 5842 5843 5844 5845 5846 5845 5844 5843 5841 5840 5837 5835 5832 5830 5827 5824 5821 5818 5814 5810 5807 5803 5799 5794 5788 5782
5797 5800 5803 5806 5810 5812 5814 5815 5817 5819 5822 5824 5826 5827 5829 5831 5832 5832 5833 5835 5837 5839 5841 5842 5843 5844 5845 5846 5845 5844 5843 5841 5840 5837 5833 5831 5829 5827 5824 5820 5817 5813 5809 5805 5801 5796 5790 5784 5777
5791 5794 5797 5802 5806 5809 5810 5812 5814 5818 5820 5822 5824 5826 5828 5829 5830 5831 5833 5835 5837 5839 5840 5842 5843 5845 5845 5845 5844 5843 5843 5841 5839 5835 5833 5831 5829 5826 5823 5820 5816 5811 5807 5803 5798 5792 5786 5779 5771
5787 5789 5794 5799 5802 5804 5807 5809 5812 5816 5818 5820 5822 5824 5826 5828 5828 5830 5832 5834 5836 5838 5840 5842 5844 5844 5845 5845 5844 5843 5842 5840 5838 5835 5833 5831 5829 5826 5823 5818 5814 5810 5805 5800 5795 5790 5784 5774 5765
5781 5784 5789 5793 5797 5800 5804 5806 5809 5812 5815 5818 5820 5822 5825 5826 5827 5828 5831 5834 5835 5838 5840 5842 5843 5844 5845 5845 5844 5843 5841 5839 5838 5835 5833 5831 5828 5825 5822 5817 5813 5808 5803 5798 5793 5787 5779 5770 5759
5776 5778 5784 5789 5793 5797 5800 5802 5806 5810 5813 5815 5817 5819 5822 5824 5826 5827 5830 5833 5835 5837 5839 5841 5842 5843 5844 5845 5844 5842 5841 5839 5838 5835 5833 5830 5827 5825 5821 5816 5811 5806 5801 5796 5791 5784 5775 5766 5754
5771 5774 5781 5786 5788 5793 5797 5799 5802 5806 5809 5811 5814 5816 5819 5822 5824 5826 5829 5831 5834 5836 5838 5840 5841 5842 5843 5844 5843 5842 5841 5839 5837 5835 5833 5830 5827 5824 5819 5815 5810 5805 5800 5794 5789 5782 5773 5763 5751
5765 5771 5776 5779 5783 5786 5790 5794 5797 5802 5805 5808 5810 5812 5816 5819 5822 5824 5827 5830 5833 5835 5837 5839 5840 5841 5842 5842 5842 5841 5840 5838 5837 5835 5832 5829 5826 5822 5818 5814 5809 5803 5798 5793 5787 5780 5771 5760 5747
5761 5767 5769 5772 5775 5780 5784 5789 5792 5796 5801 5803 5805 5809 5812 5816 5819 5821 5825 5827 5830 5833 5835 5837 5839 5840 5841 5841 5841 5840 5839 5838 5836 5834 5830 5828 5825 5821 5817 5813 5808 5803 5798 5792 5786 5779 5769 5758 5747
5755 5760 5762 5766 5770 5774 5778 5783 5788 5792 5796 5798 5801 5804 5808 5811 5815 5818 5821 5825 5827 5830 5832 5835 5836 5838 5839 5839 5839 5839 5838 5836 5835 5832 5830 5827 5824 5821 5817 5812 5808 5802 5796 5790 5785 5778 5768 5758 5746
5747 5753 5755 5758 5763 5768 5772 5777 5781 5788 5790 5793 5797 5800 5802 5806 5810 5815 5818 5821 5824 5826 5829 5831 5833 5835 5836 5837 5837 5837 5836 5835 5834 5832 5829 5826 5823 5820 5816 5811 5807 5802 5796 5790 5784 5778 5769 5759 5748
5741 5744 5747 5751 5755 5760 5766 5770 5775 5783 5784 5789 5792 5795 5798 5801 5805 5810 5814 5817 5819 5822 5825 5828 5830 5831 5833 5834 5834 5834 5834 5834 5833 5830 5827 5825 5822 5819 5815 5811 5806 5801 5796 5790 5784 5778 5770 5761 5752
5732 5735 5739 5744 5748 5752 5756 5762 5775 5774 5774 5781 5787 5790 5793 5796 5801 5804 5808 5812 5815 5818 5821 5823 5826 5828 5829 5831 5831 5831 5831 5831 5830 5828 5825 5823 5821 5818 5815 5810 5806 5801 5796 5790 5784 5779 5772 5764 5756
5723 5726 5730 5737 5739 5744 5747 5760 5766 5764 5769 5775 5779 5783 5788 5791 5795 5798 5802 5806 5810 5813 5816 5819 5822 5823 5825 5826 5828 5828 5828 5828 5827 5825 5823 5821 5819 5816 5813 5809 5806 5801 5796 5791 5785 5780 5774 5767 5760
5713 5717 5722 5727 5730 5733 5737 5751 5756 5755 5762 5767 5772 5776 5781 5785 5790 5793 5796 5799 5804 5807 5811 5814 5816 5818 5820 5822 5823 5824 5824 5824 5823 5822 5821 5819 5818 5814 5811 5808 5805 5801 5797 5792 5785 5781 5776 5770 5764
5702 5707 5712 5718 5723 5724 5727 5739 5745 5745 5753 5758 5763 5769 5774 5779 5784 5785 5789 5793 5798 5802 5805 5809 5811 5813 5815 5817 5818 5820 5821 5821 5820 5819 5818 5817 5815 5812 5809 5807 5804 5801 5797 5792 5786 5782 5778 5773 5768
5692 5696 5701 5707 5709 5711 5716 5725 5734 5736 5742 5749 5755 5763 5768 5772 5773 5778 5783 5787 5792 5796 5799 5803 5806 5807 5810 5811 5813 5815 5816 5816 5816 5815 5814 5814 5813 5810 5808 5806 5803 5800 5796 5792 5787 5782 5779 5774 5771
5680 5685 5692 5695 5698 5701 5704 5713 5722 5726 5735 5743 5748 5753 5759 5764 5766 5770 5775 5780 5785 5788 5792 5796 5799 5802 5804 5806 5807 5810 5811 5811 5811 5811 5810 5810 5809 5807 5805 5803 5801 5798 5795 5792 5787 5783 5780 5777 5774
5671 5676 5681 5684 5687 5689 5692 5699 5711 5717 5725 5733 5740 5745 5751 5757 5761 5764 5768 5774 5777 5783 5786 5789 5792 5794 5797 5799 5803 5805 5804 5805 5806 5806 5806 5806 5805 5804 5803 5801 5799 5796 5794 5791 5787 5783 5780 5778 5775
5657 5665 5667 5671 5674 5677 5682 5684 5700 5707 5713 5723 5731 5736 5742 5749 5754 5756 5760 5765 5772 5776 5778 5782 5785 5788 5791 5793 5796 5799 5798 5800 5801 5801 5802 5802 5801 5801 5800 5798 5796 5794 5791 5789 5786 5783 5779 5777 5776
5646 5652 5655 5658 5660 5662 5671 5673 5693 5698 5704 5714 5721 5726 5732 5736 5743 5747 5751 5758 5763 5766 5771 5774 5777 5781 5784 5788 5791 5792 5793 5795 5795 5796 5797 5797 5797 5797 5796 5795 5794 5791 5789 5787 5785 5783 5779 5777 5775
5632 5638 5643 5646 5648 5648 5667 5667 5679 5693 5699 5703 5707 5713 5719 5725 5732 5738 5743 5749 5756 5759 5763 5767 5772 5775 5778 5781 5784 5785 5787 5789 5790 5791 5792 5793 5793 5793 5792 5792 5790 5789 5787 5785 5784 5782 5779 5776 5774
5612 5622 5626 5632 5634 5645 5651 5656 5670 5683 5689 5692 5696 5701 5707 5715 5721 5727 5733 5739 5745 5750 5754 5759 5763 5767 5771 5774 5776 5778 5780 5783 5784 5786 5787 5788 5788 5787 5788 5787 5786 5785 5783 5782 5781 5780 5778 5776 5773
5596 5601 5612 5618 5624 5632 5635 5647 5655 5671 5678 5681 5686 5689 5695 5702 5709 5715 5721 5727 5733 5739 5744 5748 5753 5758 5762 5766 5768 5771 5773 5776 5778 5780 5781 5782 5782 5782 5782 5782 5782 5781 5780 5780 5779 5778 5777 5774 5772
5581 5584 5608 5607 5613 5621 5629 5643 5648 5658 5668 5669 5675 5678 5682 5689 5697 5704 5710 5715 5721 5728 5733 5739 5744 5748 5753 5757 5760 5763 5766 5769 5771 5773 5775 5776 5776 5777 5777 5777 5778 5778 5777 5776 5776 5775 5774 5772 5771
5567 5588 5586 5593 5604 5613 5622 5630 5640 5646 5652 5656 5662 5669 5671 5678 5685 5692 5699 5705 5711 5716 5722 5728 5733 5738 5743 5746 5750 5753 5758 5761 5765 5768 5768 5769 5770 5771 5772 5773 5773 5773 5773 5772 5772 5772 5771 5770 5768
5551 5553 5569 5588 5598 5608 5616 5624 5632 5635 5640 5647 5652 5657 5662 5668 5674 5681 5687 5694 5701 5706 5712 5718 5723 5728 5733 5738 5742 5746 5750 5754 5758 5760 5761 5762 5764 5766 5767 5767 5768 5769 5769 5769 5769 5769 5767 5766 5765
5533 5548 5562 5571 5583 5592 5599 5611 5615 5625 5630 5638 5643 5647 5652 5657 5663 5670 5677 5683 5690 5696 5702 5707 5713 5719 5724 5729 5733 5738 5742 5746 5750 5752 5754 5756 5758 5759 5761 5762 5763 5764 5765 5765 5765 5765 5764 5763 5762
Wind_Speed
31 28 24 24 21 18 16 13 12 12 13 12 12 13 12 11 11 10 9 8 7 7 7 8 11 11 10 9 9 11 13 13 15 17 19 21 21 22 24 25 26 26 26 25 24 24 26 29 31
32 32 27 24 23 20 18 15 14 14 13 14 14 13 13 12 11 10 9 8 8 9 10 13 13 11 9 8 9 11 12 14 17 19 21 22 23 25 25 25 27 27 27 26 27 27 30 34 35
33 34 30 26 24 21 19 16 14 15 15 15 14 14 14 12 11 10 9 9 11 12 15 15 13 11 9 9 10 11 13 17 18 19 23 26 26 26 27 26 27 28 26 26 27 30 34 38 38
33 35 34 27 25 23 18 17 16 15 16 16 14 14 13 13 12 11 11 13 16 17 16 14 12 10 10 9 10 12 14 16 17 20 24 27 28 28 28 29 29 29 28 28 29 34 37 41 43
33 36 35 29 27 25 20 19 17 18 18 16 14 14 14 13 12 13 14 18 19 18 16 14 11 10 9 9 10 12 14 16 19 22 23 25 27 29 31 31 31 30 30 29 31 36 41 46 49
31 35 35 29 29 27 23 21 19 18 17 15 14 14 14 13 13 15 19 21 19 16 15 13 11 9 9 8 10 12 14 17 20 22 23 24 26 28 31 32 32 31 31 30 33 38 44 49 52
29 33 35 33 32 27 26 23 22 22 20 17 16 14 14 13 15 18 21 21 18 16 16 13 10 8 7 7 9 11 14 16 19 22 24 25 27 28 30 33 33 33 31 31 33 39 46 51 53
29 31 33 34 34 29 28 25 24 22 20 19 17 15 15 16 18 21 23 21 19 18 16 13 9 6 4 6 8 11 14 16 18 20 22 25 27 29 30 33 34 34 33 32 34 39 47 52 53
30 31 30 34 35 31 30 27 26 23 22 21 19 17 16 17 20 24 24 22 21 19 15 11 8 5 2 3 6 11 15 17 19 21 23 25 27 30 31 32 35 35 35 33 34 40 47 51 54
31 28 28 36 38 36 34 31 29 26 24 22 20 19 19 20 23 25 25 23 21 18 15 12 8 5 2 1 4 9 13 17 20 21 24 27 28 30 31 31 35 36 35 33 34 41 47 50 57
31 26 31 38 41 40 36 34 32 29 26 25 24 21 20 22 26 27 27 25 23 20 16 13 9 6 4 2 1 4 8 14 17 19 24 26 30 31 31 32 33 35 36 34 34 41 47 50 56
31 29 33 39 43 43 40 36 34 31 30 29 27 25 24 26 27 29 29 27 25 21 18 15 12 10 8 6 4 5 8 13 15 19 26 27 29 30 32 32 32 34 36 33 34 40 46 48 55
33 31 35 41 44 45 43 38 36 33 34 32 29 28 28 28 29 30 29 28 27 25 21 19 16 14 13 11 10 10 10 14 16 18 23 27 28 29 31 32 32 33 36 35 32 38 44 45 53
33 34 36 41 45 46 46 42 38 34 36 35 33 30 30 30 31 31 30 31 29 26 24 21 19 17 15 14 14 14 14 14 16 18 21 27 32 28 30 30 31 32 34 36 31 36 41 43 50
36 37 38 39 44 48 49 47 34 34 40 37 33 33 32 32 32 32 33 33 32 29 26 25 22 20 18 17 15 15 15 15 16 17 21 28 31 25 29 28 29 31 32 34 29 33 38 40 45
37 40 41 39 42 48 51 45 41 41 41 37 36 35 34 34 34 36 36 36 35 32 31 29 25 24 22 20 18 18 17 18 18 18 20 25 29 25 30 29 30 31 30 32 29 29 35 37 39
40 40 42 40 42 47 54 47 42 46 42 40 38 36 36 36 34 36 37 38 37 36 34 32 29 27 25 22 21 20 19 19 19 19 19 24 26 26 29 30 30 29 28 30 28 27 31 34 33
43 40 39 37 39 45 52 52 45 50 45 44 41 37 36 36 35 38 39 39 39 37 36 34 32 29 27 25 24 23 21 20 20 20 18 22 22 26 30 30 28 27 25 26 28 25 26 31 29
45 43 39 39 43 49 53 54 50 53 50 46 43 38 37 37 40 39 38 39 39 38 37 35 33 32 29 28 27 23 22 22 22 21 19 21 23 26 28 28 26 25 23 23 26 25 22 26 26
46 45 42 42 46 49 52 53 52 54 52 48 44 42 39 38 41 40 39 39 38 39 38 37 36 34 31 30 29 24 23 24 22 22 22 23 25 27 26 24 23 24 21 21 22 23 19 21 23
48 45 44 44 46 50 52 54 53 51 53 50 48 44 42 39 38 39 39 38 38 37 37 37 36 36 33 32 29 25 25 24 23 23 23 25 25 25 24 23 22 21 19 18 18 19 18 17 19
55 48 48 47 47 49 52 57 52 51 52 51 49 48 45 40 39 40 40 38 35 34 36 36 35 35 33 33 28 27 29 25 24 24 25 24 24 23 22 21 20 20 18 15 16 17 18 14 14
59 50 49 48 50 53 50 57 53 53 53 50 48 48 47 47 46 45 43 39 37 36 35 35 35 34 32 30 29 29 28 27 27 26 25 25 23 23 22 21 20 19 18 17 14 16 16 15 12
59 53 50 49 51 57 48 52 57 49 50 46 47 47 49 49 49 48 46 43 39 38 37 36 35 34 33 32 30 30 30 28 28 26 26 25 23 23 22 21 20 19 18 17 16 14 15 16 12
65 61 59 56 56 53 54 53 56 47 46 42 43 46 48 47 48 47 46 45 44 43 42 41 40 37 35 34 33 33 31 30 29 28 27 25 24 23 23 21 20 18 17 15 15 14 14 15 12
70 69 67 65 62 58 57 55 54 47 45 42 43 41 43 45 45 45 45 45 45 45 46 46 44 42 40 37 36 36 35 32 30 29 27 25 25 24 23 22 20 18 16 16 14 13 13 12 13
69 70 64 62 61 61 58 48 52 44 37 42 40 36 43 43 42 44 45 44 44 44 44 44 43 43 42 41 41 40 38 35 33 30 27 26 26 25 24 22 20 17 15 15 14 13 11 11 13
65 63 65 62 61 61 58 53 42 43 41 41 38 46 45 44 42 41 42 43 43 41 40 41 41 41 40 40 40 39 37 36 33 30 29 28 27 27 24 23 19 17 14 14 12 13 10 11 12
70 71 69 61 60 60 58 54 46 40 34 34 38 40 43 43 41 43 42 38 38 39 40 40 39 38 38 38 38 38 36 34 32 31 30 29 28 27 25 23 19 16 14 13 12 14 10 11 13
72 62 65 64 67 69 65 61 53 48 40 34 30 28 35 38 39 39 42 43 41 39 37 38 40 39 38 37 36 36 35 34 33 33 32 31 29 27 25 22 18 16 13 13 12 13 13 12 13
Wind_Direction
236 235 237 243 224 210 207 208 225 232 230 214 196 197 203 193 183 183 180 177 165 156 142 126 114 107 94 77 69 58 51 43 40 34 27 24 19 12 6 2 358 355 350 345 339 332 328 325 320
236 237 237 238 218 208 206 217 233 228 221 198 188 191 198 196 191 188 184 181 161 153 139 129 119 105 92 86 73 62 53 44 40 33 27 25 20 13 7 0 358 355 349 343 339 337 332 328 324
236 237 235 233 215 209 208 224 229 216 206 197 189 193 201 195 193 190 183 172 161 149 140 129 117 108 103 90 76 63 57 49 42 35 32 28 20 14 6 359 356 353 348 346 341 337 333 331 325
237 237 237 226 211 213 214 210 208 201 199 198 193 204 209 198 191 187 176 165 155 149 141 127 120 118 106 88 75 64 54 47 38 34 30 25 19 12 5 1 357 353 350 346 342 337 335 334 328
239 237 238 222 212 214 214 205 198 194 199 200 203 210 213 205 187 181 171 158 154 149 137 132 131 121 100 84 69 55 45 40 34 30 24 20 16 11 7 3 359 354 351 345 339 337 337 335 333
240 239 238 221 212 213 210 201 197 200 203 206 209 215 218 204 183 174 162 157 154 146 140 140 135 119 96 79 62 49 41 33 27 24 19 15 11 8 8 5 1 356 351 344 338 337 338 339 335
244 239 234 219 211 211 209 201 202 202 201 208 216 218 219 204 182 170 163 159 154 150 147 147 136 119 96 75 58 42 34 26 21 18 12 10 7 5 7 6 3 357 351 343 337 337 340 342 338
243 236 232 217 214 209 210 204 206 206 206 207 216 220 217 200 183 173 167 163 160 157 156 152 142 125 94 64 50 36 29 24 19 15 12 8 5 3 5 6 3 359 351 344 338 341 343 344 343
246 238 231 220 217 214 213 206 209 209 207 209 211 214 213 203 187 178 173 170 166 165 164 160 156 151 123 69 47 34 30 25 19 11 7 7 5 3 3 2 3 0 353 345 340 344 345 348 348
248 240 231 221 219 217 212 209 211 209 209 209 213 212 212 202 191 184 180 177 174 176 175 175 179 182 194 125 38 35 31 20 13 11 7 4 2 3 2 1 3 1 354 348 344 347 348 353 353
247 238 232 220 219 220 212 212 211 208 210 211 213 213 211 207 195 191 188 186 184 186 191 197 200 209 225 230 5 22 2 9 14 9 3 359 360 1 1 0 0 1 357 352 349 349 351 358 357
246 238 231 223 220 221 216 213 214 210 212 214 211 210 210 210 201 198 196 195 196 196 205 214 223 225 237 263 280 309 338 353 2 0 359 1 354 358 360 359 359 360 360 355 353 351 356 3 1
244 240 232 226 222 223 223 215 216 213 216 217 216 212 210 212 206 203 203 202 205 208 213 222 231 236 240 257 276 294 316 336 343 346 348 355 356 355 358 359 358 359 360 358 354 354 360 7 6
242 240 236 228 224 222 227 221 216 215 221 219 217 217 213 213 211 206 208 209 210 214 219 226 233 241 245 251 267 285 302 316 329 338 343 352 354 353 353 357 358 358 -0 360 356 358 1 10 10
244 238 238 230 228 224 227 226 213 220 223 220 219 218 218 217 214 213 213 214 216 217 223 229 235 242 249 253 259 270 289 302 314 327 339 346 348 344 348 354 354 355 358 1 359 359 1 11 14
242 240 237 233 231 228 229 225 223 223 225 223 221 220 220 221 217 218 216 218 220 219 225 230 233 239 246 252 259 267 277 292 306 317 332 341 340 339 344 347 351 351 354 2 1 1 3 12 17
242 243 239 235 235 234 228 224 227 229 225 225 222 221 220 223 222 223 223 223 224 224 226 231 233 237 243 251 257 264 273 286 296 310 323 335 335 332 334 339 343 346 352 358 6 0 3 10 25
246 245 242 241 238 239 233 223 222 232 228 226 224 219 221 223 224 226 227 228 229 229 229 232 236 239 243 250 257 264 273 281 288 300 310 323 322 320 324 334 339 342 350 356 6 3 2 6 26
247 243 241 236 237 236 234 225 224 228 231 228 228 222 218 219 225 226 228 231 233 235 238 239 240 244 248 252 259 267 269 275 282 291 299 307 309 311 322 330 335 340 344 353 3 4 359 5 19
242 240 240 237 235 237 236 231 226 229 229 232 233 230 222 220 225 227 228 230 233 235 238 242 245 248 252 257 263 265 266 272 278 282 286 293 300 309 320 326 330 336 342 349 1 5 359 1 12
246 244 240 240 238 238 238 234 228 231 231 230 232 235 232 226 228 231 231 231 232 235 237 241 244 248 251 255 261 263 264 269 272 277 284 291 298 306 314 321 325 330 337 343 352 357 358 0 9
242 241 239 237 237 240 240 239 229 230 232 230 231 234 235 233 233 234 234 234 234 235 236 239 242 247 251 255 257 261 262 267 269 274 279 288 294 303 308 315 320 323 326 333 340 346 358 353 6
238 239 239 238 238 236 234 241 223 229 232 232 232 231 233 234 231 234 236 235 235 236 238 239 242 245 250 256 257 257 262 264 266 271 277 283 290 296 301 308 313 315 319 324 331 335 351 350 350
237 238 238 239 239 240 235 241 228 226 235 234 236 235 233 233 235 235 236 238 237 239 239 241 245 244 246 249 252 255 258 261 264 268 273 279 285 290 295 303 306 309 314 320 322 330 340 349 343
229 232 234 234 236 242 239 239 240 232 232 235 237 237 236 235 236 236 237 237 236 237 240 242 244 246 247 248 249 252 255 258 262 266 270 275 279 283 289 295 298 302 308 313 319 322 334 344 346
229 228 232 233 236 237 238 236 241 234 234 235 234 235 236 235 235 236 236 237 237 237 239 240 241 242 244 246 248 251 253 255 259 262 265 269 273 278 282 286 293 298 306 310 317 318 319 338 346
225 226 230 233 236 239 242 241 241 241 235 240 230 225 234 235 232 233 235 236 237 237 238 241 243 244 243 243 245 248 250 253 255 257 261 263 268 272 277 282 288 294 300 303 311 311 312 327 343
228 231 227 228 234 239 240 240 240 242 239 235 234 231 235 237 235 233 231 233 236 238 239 240 242 243 241 241 242 246 248 251 255 257 258 261 264 269 273 279 282 288 292 296 304 303 302 306 340
226 224 224 227 234 241 244 243 241 244 247 243 239 236 235 237 235 233 231 230 231 233 236 238 238 239 240 240 243 246 249 252 253 253 254 257 260 265 269 274 277 281 284 290 295 297 291 293 311
227 228 230 228 226 226 229 232 239 236 237 233 229 229 227 231 232 231 231 231 230 230 230 232 235 236 236 237 238 240 243 246 248 249 251 254 258 261 267 268 271 274 276 281 285 287 286 296 316